UTA7775 USRR-USRO

Flight info

Callsign UTA7775
Flight time 0h 32m
Altitude 15000
Route ULGUN1W ULGUN R717 INGIR INGIR1J
Aircraft B738/M-SDE2E3FGHIRWXY/LB1

Departure

Time 2026-04-23 06:31
Airport Surgut International Airport (USRR)

Arrival

Time 2026-04-23 07:04
Airport Noyabrsk Airport (USRO)
Time Latitude Longitude Altitude Speed Heading
2026-04-23 06:30 61.34396 73.42619 202 ft 0 kts 265°
2026-04-23 06:30 61.34396 73.42618 210 ft 1 kts 265°
2026-04-23 06:31 61.34391 73.41749 208 ft 114 kts 270°
2026-04-23 06:31 61.34383 73.39415 212 ft 203 kts 270°
2026-04-23 06:31 61.34379 73.36213 730 ft 216 kts 265°
2026-04-23 06:31 61.33999 73.33447 1303 ft 197 kts 236°
2026-04-23 06:32 61.32979 73.31303 1007 ft 225 kts 218°
2026-04-23 06:32 61.31673 73.29585 1416 ft 209 kts 201°
2026-04-23 06:32 61.30321 73.29574 2785 ft 201 kts 160°
2026-04-23 06:32 61.29196 73.31536 3660 ft 228 kts 121°
2026-04-23 06:33 61.28959 73.34751 4683 ft 233 kts 75°
2026-04-23 06:33 61.29844 73.37682 5200 ft 262 kts 51°
2026-04-23 06:33 61.30927 73.40732 6084 ft 267 kts 58°
2026-04-23 06:33 61.31682 73.44337 6994 ft 267 kts 75°
2026-04-23 06:34 61.32018 73.48204 7894 ft 272 kts 88°
2026-04-23 06:34 61.31956 73.52116 8895 ft 273 kts 98°
2026-04-23 06:34 61.31695 73.55798 10405 ft 238 kts 103°
2026-04-23 06:34 61.31388 73.59170 11188 ft 249 kts 107°
2026-04-23 06:35 61.30955 73.63047 10919 ft 298 kts 105°
2026-04-23 06:35 61.30466 73.67476 11243 ft 315 kts 107°
2026-04-23 06:35 61.29932 73.71804 12352 ft 310 kts 110°
2026-04-23 06:35 61.29285 73.76279 12529 ft 338 kts 107°
2026-04-23 06:36 61.28954 73.81283 12928 ft 355 kts 99°
2026-04-23 06:36 61.28835 73.86446 13607 ft 364 kts 83°
2026-04-23 06:36 61.29728 73.91250 14657 ft 358 kts 56°
2026-04-23 06:36 61.31398 73.95186 15016 ft 369 kts 35°
2026-04-23 06:37 61.33627 73.97558 15578 ft 363 kts 11°
2026-04-23 06:37 61.36071 73.98092 16302 ft 346 kts 346°
2026-04-23 06:37 61.38270 73.96647 17118 ft 323 kts 322°
2026-04-23 06:37 61.39909 73.93720 17744 ft 303 kts 296°
2026-04-23 06:38 61.40645 73.89759 18260 ft 288 kts 270°
2026-04-23 06:38 61.40397 73.85693 18702 ft 287 kts 246°
2026-04-23 06:38 61.39160 73.82341 18882 ft 300 kts 222°
2026-04-23 06:38 61.37541 73.79863 20038 ft 283 kts 218°
2026-04-23 06:39 61.35846 73.77483 20010 ft 308 kts 215°
2026-04-23 06:39 61.33742 73.76082 20538 ft 333 kts 192°
2026-04-23 06:39 61.31320 73.76435 20643 ft 369 kts 175°
2026-04-23 06:39 61.28861 73.78636 20788 ft 399 kts 154°
2026-04-23 06:40 61.26862 73.82564 20972 ft 395 kts 131°
2026-04-23 06:40 61.25700 73.87736 20674 ft 402 kts 111°
2026-04-23 06:40 61.25521 73.93403 21102 ft 384 kts 85°
2026-04-23 06:40 61.26275 73.98527 21462 ft 363 kts 60°
2026-04-23 06:41 61.27794 74.02601 21223 ft 355 kts 37°
2026-04-23 06:41 61.29769 74.05631 20955 ft 357 kts 20°
2026-04-23 06:41 61.32076 74.08168 20817 ft 391 kts 17°
2026-04-23 06:41 61.34613 74.10678 20990 ft 415 kts 21°
2026-04-23 06:42 61.37302 74.13219 21249 ft 433 kts 17°
2026-04-23 06:42 61.40145 74.15609 21478 ft 450 kts 17°
2026-04-23 06:42 61.43081 74.17930 21893 ft 444 kts 11°
2026-04-23 06:42 61.45969 74.19536 22001 ft 417 kts
2026-04-23 06:43 61.48784 74.20769 21682 ft 409 kts
2026-04-23 06:43 61.51511 74.22130 21433 ft 400 kts
2026-04-23 06:43 61.54210 74.23510 21335 ft 407 kts
2026-04-23 06:43 61.57049 74.24984 21411 ft 431 kts
2026-04-23 06:44 61.59993 74.26495 21554 ft 437 kts
2026-04-23 06:44 61.62951 74.27896 21919 ft 437 kts
2026-04-23 06:44 61.65926 74.29271 22288 ft 437 kts
2026-04-23 06:44 61.68913 74.30659 22321 ft 445 kts
2026-04-23 06:45 61.71930 74.31950 22357 ft 434 kts
2026-04-23 06:45 61.74837 74.33282 22049 ft 426 kts
2026-04-23 06:45 61.77672 74.34685 21770 ft 418 kts
2026-04-23 06:45 61.80452 74.36054 21675 ft 406 kts
2026-04-23 06:46 61.83192 74.37931 21507 ft 431 kts 16°
2026-04-23 06:46 61.85985 74.40771 21631 ft 459 kts 25°
2026-04-23 06:46 61.88788 74.44227 22037 ft 470 kts 24°
2026-04-23 06:46 61.91711 74.47370 22762 ft 469 kts 19°
2026-04-23 06:47 61.94686 74.49940 23873 ft 456 kts 13°
2026-04-23 06:47 61.97673 74.52051 24626 ft 455 kts 11°
2026-04-23 06:47 62.00639 74.54096 24613 ft 440 kts 11°
2026-04-23 06:47 62.03535 74.55807 24416 ft 424 kts
2026-04-23 06:48 62.06376 74.56956 24207 ft 407 kts 358°
2026-04-23 06:48 62.09109 74.57320 24213 ft 384 kts 352°
2026-04-23 06:48 62.11784 74.57470 23629 ft 386 kts 351°
2026-04-23 06:48 62.14479 74.57451 23087 ft 386 kts 351°
2026-04-23 06:49 62.17143 74.57580 22823 ft 382 kts 354°
2026-04-23 06:49 62.19783 74.57933 22462 ft 379 kts 355°
2026-04-23 06:49 62.22439 74.58332 22096 ft 396 kts 356°
2026-04-23 06:49 62.25318 74.58936 21799 ft 436 kts
2026-04-23 06:50 62.28406 74.60196 21623 ft 468 kts
2026-04-23 06:50 62.31563 74.62009 21311 ft 465 kts 11°
2026-04-23 06:50 62.34627 74.64120 20789 ft 458 kts 13°
2026-04-23 06:50 62.37600 74.66567 20593 ft 464 kts 15°
2026-04-23 06:51 62.40631 74.69320 20776 ft 483 kts 18°
2026-04-23 06:51 62.43653 74.72298 20877 ft 464 kts 20°
2026-04-23 06:51 62.46446 74.75392 21094 ft 440 kts 26°
2026-04-23 06:51 62.48915 74.79704 20761 ft 479 kts 44°
2026-04-23 06:52 62.51319 74.84779 20285 ft 485 kts 35°
2026-04-23 06:52 62.54127 74.88407 20490 ft 450 kts 17°
2026-04-23 06:52 62.57016 74.90175 20650 ft 427 kts
2026-04-23 06:52 62.59989 74.90890 20587 ft 442 kts
2026-04-23 06:53 62.63051 74.92489 19314 ft 456 kts 11°
2026-04-23 06:53 62.66072 74.94689 18579 ft 451 kts 15°
2026-04-23 06:53 62.69026 74.96857 17715 ft 447 kts 11°
2026-04-23 06:53 62.71962 74.98530 17194 ft 433 kts
2026-04-23 06:54 62.74979 74.99635 16131 ft 432 kts 359°
2026-04-23 06:54 62.77880 74.99409 15327 ft 421 kts 351°
2026-04-23 06:54 62.80807 74.99090 14407 ft 422 kts 354°
2026-04-23 06:54 62.83624 74.99196 14343 ft 384 kts 359°
2026-04-23 06:55 62.86150 74.99810 13203 ft 360 kts
2026-04-23 06:55 62.88625 75.01272 11428 ft 372 kts 23°
2026-04-23 06:55 62.90782 75.03935 10373 ft 349 kts 33°
2026-04-23 06:55 62.92549 75.07554 8831 ft 345 kts 51°
2026-04-23 06:56 62.94001 75.11612 8265 ft 317 kts 47°
2026-04-23 06:56 62.95645 75.14643 7200 ft 308 kts 29°
2026-04-23 06:56 62.97638 75.16008 6234 ft 296 kts 357°
2026-04-23 06:56 62.99563 75.15062 5153 ft 283 kts 336°
2026-04-23 06:57 63.01383 75.13314 4002 ft 282 kts 335°
2026-04-23 06:57 63.03210 75.12210 3337 ft 263 kts 354°
2026-04-23 06:57 63.04380 75.12574 2886 ft 255 kts 23°
2026-04-23 06:57 63.05655 75.15030 2102 ft 244 kts 64°
2026-04-23 06:58 63.06170 75.18320 1932 ft 208 kts 84°
2026-04-23 06:58 63.06280 75.21314 1881 ft 205 kts 90°
2026-04-23 06:58 63.06458 75.24324 2036 ft 192 kts 68°
2026-04-23 06:58 63.07317 75.26593 1889 ft 189 kts 22°
2026-04-23 06:59 63.08698 75.26445 2044 ft 230 kts 333°
2026-04-23 06:59 63.09974 75.24047 2326 ft 249 kts 309°
2026-04-23 06:59 63.11033 75.21443 2163 ft 216 kts 310°
2026-04-23 06:59 63.12144 75.19463 2017 ft 187 kts 341°
2026-04-23 07:00 63.13373 75.19584 1630 ft 183 kts 26°
2026-04-23 07:00 63.14336 75.21390 1105 ft 181 kts 57°
2026-04-23 07:00 63.15148 75.23361 850 ft 169 kts 34°
2026-04-23 07:00 63.16160 75.24550 639 ft 156 kts 27°
2026-04-23 07:01 63.17116 75.25564 575 ft 153 kts 26°
2026-04-23 07:01 63.18124 75.26625 724 ft 179 kts 26°
2026-04-23 07:01 63.19181 75.28079 842 ft 176 kts 43°
2026-04-23 07:01 63.20039 75.29950 828 ft 174 kts 44°
2026-04-23 07:02 63.21006 75.31688 804 ft 181 kts 35°
2026-04-23 07:02 63.22169 75.33109 875 ft 199 kts 22°
2026-04-23 07:02 63.23468 75.33391 1210 ft 192 kts 336°
2026-04-23 07:02 63.24516 75.31671 1289 ft 189 kts 285°
2026-04-23 07:03 63.24637 75.29008 1628 ft 175 kts 233°
2026-04-23 07:03 63.23570 75.27764 1794 ft 196 kts 168°
2026-04-23 07:03 63.22275 75.28910 1029 ft 204 kts 158°
2026-04-23 07:03 63.20974 75.29379 817 ft 182 kts 192°
2026-04-23 07:04 63.19840 75.28380 540 ft 168 kts 205°
2026-04-23 07:04 63.18842 75.27350 447 ft 146 kts 205°
2026-04-23 07:04 63.18408 75.26916 456 ft 23 kts 201°
2026-04-23 07:04 63.18316 75.27037 457 ft 8 kts 113°
2026-04-23 07:05 63.18315 75.27040 456 ft 0 kts 113°